[[{"header":{"parameterUnit":"m.s-1","parameterCategory":1,"la1":30.2991,"la2":30.254,"lo1":-89.0895,"lo2":-89.0444,"dy":0.0017,"dx":0.0017,"nx":28,"ny":28,"refTime":"2024-11-23T09:00:00:Z","depth":0,"parameterNumber":2,"parameterNumberName":"U-component_of_WINDS"},"data":[0,0,0,0,0,0,0,0,0,0,0,0,0,0,0,0,0,0,0,0,0,0,0,0,0,0,0,0,0,0,0,0,0,0,0,0,0,0,0,0,0,0,0,0,0,0,0,0,0,0,0,0,0,0,0,0,0,0,2.9287,2.9288,0,2.9389,2.939,2.9391,2.9363,2.9361,2.9359,2.9357,2.9459,2.9464,2.9468,0,0,0,0,0,0,0,0,0,0,0,0,0,2.9064,2.9068,2.9287,2.9288,2.9289,2.9388,2.939,2.9391,2.9363,2.9361,2.9358,2.9356,2.9458,2.9463,2.9469,0,0,0,0,0,0,0,0,0,0,0,0,0,2.9163,2.907,2.9287,2.9287,2.9288,2.9388,2.939,2.9392,2.9364,2.9361,2.9358,2.9355,2.9456,2.9463,2.9469,2.9574,0,0,2.9491,2.9494,0,0,0,0,0,0,0,0,2.9157,2.9171,2.9286,2.9288,2.9289,2.936,2.9349,2.9453,2.9365,2.9335,2.9357,2.9353,2.9429,2.9438,2.9463,2.9579,2.9583,2.9491,2.9496,2.9499,2.9501,0,0,0,0,0,0,0,2.9151,2.9166,2.9327,2.9288,2.9289,2.9281,2.9292,2.9368,2.9398,2.9337,2.9336,2.9348,2.9429,2.9457,2.9466,2.9585,2.9491,2.9497,2.9502,2.9504,2.9787,2.979,0,0,0,0,0,0,2.9143,2.9161,2.9324,2.933,2.9214,2.9288,2.93,2.934,2.9397,2.9403,2.9351,2.9346,2.9446,2.9457,2.9469,2.9592,2.9499,2.9505,2.9509,2.9783,2.9787,2.9791,0,0,0,0,0,0,2.9138,2.9158,2.932,2.9245,2.9265,2.9295,2.9341,2.9344,2.9372,2.9407,2.9412,2.9374,2.9444,2.9459,2.9547,2.9596,2.9508,2.9514,2.9779,2.9785,2.9789,2.9842,0,0,0,0,0,0,2.9132,2.9156,2.9198,2.9246,2.9269,2.9398,2.9344,2.9348,2.9384,2.938,2.943,2.9436,2.9443,2.9537,2.9554,2.9604,2.952,2.9775,2.9782,2.9788,2.9836,2.9848,2.9858,0,0,0,0,0,2.9124,2.9209,2.92,2.922,2.9322,2.9401,2.9414,2.9421,2.9388,2.9429,2.9451,2.9434,2.9588,2.9546,2.9565,2.9618,2.9772,2.978,2.9787,2.9831,2.9845,2.9858,0,0,0,0,0,0,2.9165,2.9215,2.9206,2.9309,2.9351,2.9396,2.9448,2.9437,2.9489,2.9482,2.9488,2.95,2.9589,2.9613,2.9566,2.972,2.9675,2.9687,2.9701,2.9716,2.9727,2.9719,2.9526,0,0,0,0,0,2.9186,2.9247,2.9287,2.9374,2.9396,2.9418,2.9453,2.9455,2.9498,2.9515,2.9544,2.9586,2.9643,2.9681,2.9736,2.9839,2.9848,2.9884,2.9895,2.9904,2.9914,2.9966,2.9982,2.9816,2.9815,2.9815,0,0,2.923,2.9265,2.9304,2.9383,2.9416,2.9477,2.9433,2.9501,2.9546,2.9526,2.961,2.9632,2.9679,2.9774,2.9817,2.9796,2.9962,2.9914,2.9921,2.9925,2.9976,2.9992,3.0005,2.9821,2.982,2.9819,0,0,2.9342,2.9375,2.945,2.9483,2.9533,2.9546,2.9564,2.961,2.9624,2.9709,2.9694,2.9747,2.9847,2.9879,2.9909,3.0029,3.0015,3.0047,3.0105,3.0157,3.017,3.0181,3.0222,3.0236,3.0057,3.0057,3.0057,0,2.939,2.9483,2.949,2.9558,2.9592,2.9576,2.965,2.9681,2.9746,2.977,2.9745,2.9867,2.9898,2.9999,3.0027,3.0053,3.0072,3.0041,3.0168,3.0179,3.019,3.0229,3.0244,3.006,3.006,3.006,3.0059,0,2.9539,2.9603,2.9657,2.9719,2.976,2.9831,2.9846,2.9886,2.9883,2.9899,2.9984,3.0019,3.008,3.0104,3.0103,3.0204,3.0189,3.0166,3.0121,3.0209,3.0245,3.026,3.0065,3.0064,3.0063,3.0062,0,0,2.968,2.9743,2.9763,2.9789,2.9841,2.989,2.9959,3.0018,3.0051,3.0095,3.0151,3.0235,3.0213,3.0246,3.0248,3.0294,3.0383,3.0265,3.0266,3.0283,3.0493,3.0509,3.0526,3.0374,3.0377,3.0379,3.0488,0,2.9794,2.9916,2.9922,3.0032,3.009,3.0074,3.0133,3.017,3.0186,3.0236,3.0253,3.0311,3.0279,3.0299,3.0343,3.0363,3.0425,3.0355,3.0424,3.0426,3.0411,3.0545,3.0563,3.0664,3.0503,3.0505,3.0507,0,2.9944,2.9992,3.0108,3.0148,3.0173,3.0226,3.0279,3.0328,3.0369,3.0377,3.0413,3.0407,3.0475,3.0428,3.052,3.0473,3.0501,3.0514,3.0518,3.0524,3.0471,3.0552,3.0697,3.0712,3.053,3.0528,3.0526,0,3.0032,3.0126,3.0207,3.023,3.0281,3.0318,3.034,3.0378,3.0412,3.0458,3.0479,3.0532,3.0561,3.0601,3.0609,3.0575,3.07,3.0655,3.0707,3.0707,3.0734,3.0732,3.0883,3.0755,3.0755,3.0754,3.0754,0,3.0158,3.0229,3.0246,3.0296,3.0373,3.0379,3.0455,3.0475,3.0508,3.0559,3.0549,3.0597,3.0605,3.0654,3.0661,3.0735,3.0748,3.0755,3.0756,3.0755,3.0754,3.0773,3.0765,3.0758,3.0757,3.0757,3.0756,0,3.027,3.0285,3.0371,3.0411,3.0422,3.0478,3.0511,3.0557,3.057,3.0635,3.0651,3.0672,3.0729,3.0741,3.0809,3.0813,3.09,3.0895,3.0886,3.0885,3.0936,3.093,3.1103,3.1125,3.0984,3.0986,3.0987,0,3.0349,3.0403,3.0447,3.0481,3.0505,3.056,3.0594,3.06,3.0636,3.0684,3.0724,3.078,3.0825,3.0916,3.0937,3.0988,3.0982,3.1039,3.099,3.0986,3.098,3.0976,3.098,3.1048,3.105,3.1051,3.1052,0,3.0486,3.049,3.054,3.0592,3.0632,3.0673,3.0712,3.074,3.0751,3.0791,3.085,3.0884,3.0953,3.1007,3.1058,3.1079,3.1067,3.1068,3.1082,3.1081,3.1073,3.1076,3.091,3.1064,3.1062,3.1062,3.1061,3.1061,3.0582,3.0628,3.0666,3.0721,3.075,3.0786,3.083,3.0849,3.0898,3.0954,3.0954,3.1017,3.1053,3.1119,3.1144,3.1191,3.1173,3.1195,3.12,3.1205,3.1208,3.1067,3.1201,3.1201,3.12,3.12,3.12,0,3.0717,3.074,3.079,3.0844,3.0887,3.0872,3.0913,3.0949,3.1005,3.104,3.1083,3.1148,3.12,3.1224,3.1275,3.1308,3.1304,3.1321,3.1318,3.1323,3.1223,3.1204,3.1324,3.1324,3.1324,3.1324,3.1324,3.1324,3.0791,3.0867,3.0875,3.0964,3.0986,3.1047,3.1072,3.1104,3.1131,3.1204,3.1248,3.1263,3.1292,3.1345,3.1391,3.1396,3.1414,3.1434,3.1437,3.1343,3.133,3.1318,3.13,3.1439,3.1439,3.1532,3.1533,3.1534]},{"header":{"parameterUnit":"m.s-1","parameterCategory":1,"la1":30.2991,"la2":30.254,"lo1":-89.0895,"lo2":-89.0444,"dy":0.0017,"dx":0.0017,"nx":28,"ny":28,"refTime":"2024-11-23T09:00:00:Z","depth":0,"parameterNumber":3,"parameterNumberName":"V-component_of_WINDS"},"data":[0,0,0,0,0,0,0,0,0,0,0,0,0,0,0,0,0,0,0,0,0,0,0,0,0,0,0,0,0,0,0,0,0,0,0,0,0,0,0,0,0,0,0,0,0,0,0,0,0,0,0,0,0,0,0,0,0,0,3.9278,3.9279,0,3.9353,3.9354,3.9355,3.9323,3.9321,3.9319,3.9318,3.9391,3.9395,3.9398,0,0,0,0,0,0,0,0,0,0,0,0,0,3.9101,3.9104,3.9278,3.9279,3.928,3.9353,3.9354,3.9355,3.9323,3.9321,3.9319,3.9317,3.939,3.9394,3.9399,0,0,0,0,0,0,0,0,0,0,0,0,0,3.9177,3.9106,3.9278,3.9273,3.9273,3.9353,3.9354,3.9356,3.9324,3.9321,3.9318,3.9316,3.9388,3.9394,3.9399,3.9487,0,0,3.9416,3.9418,0,0,0,0,0,0,0,0,3.9173,3.9184,3.9273,3.9273,3.9274,3.9326,3.9319,3.94,3.9324,3.9304,3.9317,3.9314,3.9371,3.9378,3.9398,3.9491,3.9494,3.9416,3.942,3.9422,3.9424,0,0,0,0,0,0,0,3.9168,3.918,3.9308,3.9274,3.9275,3.9265,3.9273,3.9334,3.9352,3.9306,3.9304,3.9313,3.9371,3.9393,3.94,3.9495,3.9416,3.9421,3.9424,3.9427,3.966,3.9663,0,0,0,0,0,0,3.9163,3.9176,3.9305,3.931,3.9216,3.927,3.9279,3.9312,3.9351,3.9355,3.9316,3.9312,3.9385,3.9393,3.9402,3.9506,3.9422,3.9427,3.943,3.9657,3.9661,3.9664,0,0,0,0,0,0,3.9159,3.9175,3.9302,3.9243,3.9258,3.9276,3.9313,3.9315,3.9337,3.9359,3.9361,3.9335,3.9383,3.9394,3.9466,3.9508,3.943,3.9435,3.9654,3.9658,3.9662,3.9716,0,0,0,0,0,0,3.9154,3.9174,3.9209,3.9244,3.9261,3.9367,3.9316,3.9318,3.9347,3.9342,3.9377,3.9381,3.9382,3.9458,3.9471,3.9514,3.9439,3.965,3.9656,3.9661,3.971,3.9721,3.9731,0,0,0,0,0,3.9148,3.9221,3.9211,3.9227,3.9306,3.9369,3.9379,3.938,3.935,3.9385,3.9398,3.938,3.9501,3.9466,3.948,3.9525,3.9647,3.9654,3.9661,3.9706,3.9719,3.9731,0,0,0,0,0,0,3.919,3.9225,3.9215,3.9301,3.9333,3.9364,3.9408,3.9395,3.9435,3.9429,3.9427,3.9435,3.9509,3.9524,3.9484,3.9611,3.9569,3.9579,3.9599,3.9612,3.9622,3.9616,3.9443,0,0,0,0,0,3.921,3.926,3.9287,3.9361,3.9377,3.939,3.9417,3.9415,3.9447,3.946,3.9479,3.9509,3.9554,3.9584,3.9626,3.9712,3.9718,3.975,3.976,3.9769,3.9777,3.9821,3.9835,3.9686,3.9686,3.9685,0,0,3.925,3.9276,3.9307,3.937,3.9394,3.9444,3.9401,3.9456,3.9493,3.9468,3.9536,3.9551,3.9585,3.9663,3.9699,3.9678,3.9819,3.9777,3.9784,3.9787,3.9829,3.9843,3.9855,3.969,3.9689,3.9689,0,0,3.935,3.9375,3.9438,3.9462,3.9499,3.9507,3.9522,3.9554,3.9563,3.9632,3.9614,3.9656,3.9734,3.9758,3.978,3.9885,3.9869,3.9899,3.9953,3.9995,4.0007,4.0017,4.0053,4.0066,3.9907,3.9908,3.9908,0,3.9395,3.9471,3.9471,3.9528,3.9554,3.9534,3.9596,3.962,3.9668,3.9686,3.9663,3.9759,3.978,3.9862,3.9888,3.9907,3.9922,3.9895,4.0006,4.0016,4.0026,4.006,4.0073,3.9911,3.9911,3.991,3.991,0,3.9524,3.9577,3.9623,3.967,3.9702,3.9761,3.9768,3.98,3.9794,3.9803,3.9872,3.9896,3.9942,3.9962,3.9957,4.0043,4.0029,4.0006,3.9964,4.0043,4.0075,4.0088,3.9916,3.9914,3.9913,3.9913,0,0,3.9654,3.9699,3.9716,3.9736,3.9774,3.9814,3.987,3.9916,3.9942,3.9975,4.0021,4.0086,4.0064,4.009,4.0087,4.0124,4.0203,4.0096,4.0097,4.0114,4.0297,4.0313,4.0328,4.0192,4.0195,4.0197,4.0293,0,3.9755,3.9855,3.9856,3.9947,3.9994,3.9975,4.0023,4.0051,4.006,4.01,4.0109,4.0155,4.0124,4.0138,4.0175,4.0186,4.024,4.0179,4.0233,4.0235,4.0225,4.0345,4.0363,4.0453,4.0306,4.0308,4.0309,0,3.9887,3.9924,4.0021,4.0049,4.0069,4.0113,4.0153,4.0192,4.0221,4.0225,4.0253,4.0243,4.0298,4.0254,4.0329,4.0287,4.0309,4.0317,4.0321,4.0325,4.0277,4.0352,4.0482,4.0495,4.0329,4.0328,4.0326,0,3.9969,4.0044,4.0111,4.0129,4.0164,4.0195,4.0211,4.0238,4.0264,4.0299,4.0315,4.0356,4.0377,4.0408,4.0408,4.0377,4.0483,4.044,4.0485,4.0485,4.0509,4.0507,4.0643,4.0524,4.0524,4.0524,4.0524,0,4.0081,4.0141,4.0148,4.0189,4.0254,4.0252,4.0316,4.0329,4.0352,4.0394,4.0379,4.0417,4.0417,4.0455,4.0456,4.0516,4.0526,4.0529,4.0528,4.053,4.053,4.0544,4.0537,4.0527,4.0527,4.0526,4.0525,0,4.0185,4.0193,4.0264,4.0291,4.0299,4.0345,4.0367,4.0405,4.0412,4.0465,4.0477,4.0488,4.0532,4.0536,4.0588,4.0588,4.066,4.0653,4.065,4.0649,4.0694,4.0689,4.0843,4.0863,4.0732,4.0734,4.0735,0,4.0256,4.0301,4.0333,4.036,4.0377,4.0421,4.0448,4.0447,4.0475,4.051,4.0543,4.0586,4.0621,4.0692,4.0704,4.0742,4.0735,4.0787,4.0741,4.074,4.0734,4.0731,4.0734,4.0795,4.0797,4.0798,4.0799,0,4.038,4.0381,4.0421,4.0461,4.0493,4.0525,4.0554,4.0577,4.0579,4.061,4.0656,4.0683,4.0735,4.0777,4.0815,4.0829,4.0814,4.0813,4.0825,4.0827,4.0823,4.0824,4.0673,4.081,4.0809,4.0808,4.0807,4.0807,4.0469,4.0507,4.0534,4.0578,4.06,4.0627,4.0663,4.0674,4.0713,4.0756,4.0752,4.0802,4.0827,4.0876,4.0893,4.093,4.0913,4.0931,4.0935,4.094,4.0944,4.0818,4.0937,4.0937,4.0936,4.0936,4.0936,0,4.0591,4.0607,4.0647,4.0688,4.0722,4.0706,4.0736,4.0765,4.081,4.0835,4.0869,4.0919,4.096,4.0973,4.1012,4.1039,4.1033,4.1049,4.1047,4.105,4.0958,4.0943,4.1053,4.1053,4.1053,4.1053,4.1053,4.1053,4.0658,4.0721,4.0725,4.0797,4.0812,4.0862,4.088,4.0904,4.0924,4.0982,4.1015,4.1024,4.1044,4.1083,4.1119,4.1121,4.1135,4.1154,4.1154,4.1068,4.1056,4.1045,4.1031,4.1158,4.1158,4.1242,4.1243,4.1244]}]]